Weather History for Glendive, MT

Change the Weather History Date:

Sunday, November 18, 2012

  Actual Average Record
Temperature  
Mean Temperature 34 °F -  
Max Temperature 44 °F 37 °F 69 °F (2008)
Min Temperature 24 °F 18 °F 0 °F (1996)
Degree Days  
Heating Degree Days 31    
Moisture  
Dew Point 28 °F    
Average Humidity 74    
Maximum Humidity 93    
Minimum Humidity 61    
Precipitation  
Precipitation 0.00 in - - ()
Sea Level Pressure  
Sea Level Pressure 29.82 in    
Wind  
Wind Speed 3 mph (WSW)    
Max Wind Speed 15 mph    
Max Gust Speed -    
Visibility 10 miles    
Events      
Averages and records for this station are not official NWS values.
T = Trace of Precipitation, MM = Missing Value Source: NWS Daily Summary

Daily Weather History Graph

Daily Weather History Graph

Search for Another Location

Airport:

Trip Planner

Search our weather history database for the weather conditions in past years. The results will help you decide how hot, cold, wet, or windy it might be!

Date:

Astronomy

Nov. 18, 2012 Rise Set
Actual Time 7:08 AM MST 4:20 PM MST
Civil Twilight 6:34 AM MST 4:54 PM MST
Nautical Twilight 5:57 AM MST 5:31 PM MST
Astronomical Twilight 5:20 AM MST 6:07 PM MST
Moon 11:32 AM MST (11/18) 9:49 PM MST (11/18)
Length of Visible Light 10h 19m
Length of Day
9h 12m
Waxing Crescent, 31% of the Moon is Illuminated
Nov 18
Waxing Crescent
Nov 20
First Quarter
Nov 28
Full
Dec 6
Last Quarter
Dec 13
New

Hourly Weather History & Observations

Time (MST) Temp. Windchill Dew Point Humidity Pressure Visibility Wind Dir Wind Speed Gust Speed Precip Events Conditions
12:15 AM 33.8 °F - 26.6 °F 75% 29.85 in 10.0 mi Calm Calm - N/A   Clear
12:35 AM 33.8 °F 30.8 °F 28.4 °F 81% 29.84 in 10.0 mi South 3.5 mph - N/A   Clear
12:55 AM 33.8 °F - 30.2 °F 87% 29.84 in 10.0 mi Calm Calm - N/A   Clear
1:15 AM 32.0 °F - 30.2 °F 93% 29.83 in 10.0 mi Calm Calm - N/A   Clear
1:35 AM 30.2 °F - 26.6 °F 86% 29.82 in 10.0 mi Calm Calm - N/A   Clear
1:55 AM 33.8 °F 30.8 °F 26.6 °F 75% 29.81 in 10.0 mi South 3.5 mph - N/A   Clear
2:15 AM 33.8 °F 28.6 °F 26.6 °F 75% 29.80 in 10.0 mi South 5.8 mph - N/A   Clear
2:35 AM 33.8 °F 30.8 °F 24.8 °F 70% 29.80 in 10.0 mi South 3.5 mph - N/A   Clear
2:55 AM 28.4 °F - 24.8 °F 86% 29.79 in 10.0 mi Calm Calm - N/A   Clear
3:15 AM 28.4 °F 24.6 °F 21.2 °F 74% 29.78 in 10.0 mi East 3.5 mph - N/A   Clear
3:35 AM 26.6 °F - 21.2 °F 80% 29.77 in 10.0 mi Calm Calm - N/A   Clear
3:55 AM 30.2 °F 26.7 °F 26.6 °F 86% 29.77 in 10.0 mi ENE 3.5 mph - N/A   Clear
4:16 AM 32.0 °F 27.5 °F 26.6 °F 80% 29.76 in 10.0 mi ESE 4.6 mph - N/A   Clear
4:35 AM 30.2 °F - 26.6 °F 86% 29.76 in 10.0 mi Calm Calm - N/A   Clear
4:55 AM 28.4 °F - 21.2 °F 74% 29.76 in 10.0 mi Calm Calm - N/A   Clear
5:15 AM 24.8 °F - 19.4 °F 80% 29.75 in 10.0 mi Calm Calm - N/A   Clear
5:35 AM 28.4 °F - 24.8 °F 86% 29.75 in 10.0 mi Calm Calm - N/A   Clear
5:55 AM 28.4 °F 24.6 °F 26.6 °F 93% 29.74 in 10.0 mi SE 3.5 mph - N/A   Clear
6:15 AM 28.4 °F - 23.0 °F 80% 29.74 in 10.0 mi Calm Calm - N/A   Clear
6:35 AM 26.6 °F - 23.0 °F 86% 29.74 in 10.0 mi Calm Calm - N/A   Clear
6:55 AM 26.6 °F - 21.2 °F 80% 29.74 in 10.0 mi Calm Calm - N/A   Clear
7:15 AM 24.8 °F - 21.2 °F 86% 29.74 in 10.0 mi Calm Calm - N/A   Clear
7:35 AM 24.8 °F 20.5 °F 21.2 °F 86% 29.74 in 10.0 mi WNW 3.5 mph - N/A   Clear
7:55 AM 26.6 °F 22.6 °F 23.0 °F 86% 29.74 in 10.0 mi WNW 3.5 mph - N/A   Clear
8:15 AM 28.4 °F - 23.0 °F 80% 29.74 in 10.0 mi Calm Calm - N/A   Clear
8:35 AM 32.0 °F - 26.6 °F 80% 29.74 in 10.0 mi Calm Calm - N/A   Clear
8:55 AM 35.6 °F 32.8 °F 30.2 °F 81% 29.74 in 10.0 mi SW 3.5 mph - N/A   Clear
9:55 AM 37.4 °F 33.8 °F 28.4 °F 70% 29.73 in 10.0 mi SSE 4.6 mph - N/A   Clear
10:15 AM 39.2 °F 35.9 °F 28.4 °F 65% 29.74 in 10.0 mi WSW 4.6 mph - N/A   Clear
10:35 AM 42.8 °F - 30.2 °F 61% 29.74 in 10.0 mi Calm Calm - N/A   Clear
10:55 AM 42.8 °F 37.5 °F 30.2 °F 61% 29.76 in 10.0 mi West 9.2 mph - N/A   Clear
11:15 AM 42.8 °F 39.3 °F 30.2 °F 61% 29.75 in 10.0 mi SSW 5.8 mph - N/A   Clear
11:35 AM 42.8 °F 40.1 °F 30.2 °F 61% 29.74 in 10.0 mi SW 4.6 mph - N/A   Clear
11:55 AM 42.8 °F 39.3 °F 32.0 °F 66% 29.73 in 10.0 mi SW 5.8 mph - N/A   Clear
12:15 PM 42.8 °F 38.0 °F 30.2 °F 61% 29.74 in 10.0 mi SW 8.1 mph - N/A   Clear
12:35 PM 42.8 °F 39.3 °F 30.2 °F 61% 29.74 in 10.0 mi SSW 5.8 mph - N/A   Mostly Cloudy
12:55 PM 42.8 °F 38.0 °F 32.0 °F 66% 29.74 in 10.0 mi SSW 8.1 mph - N/A   Scattered Clouds
1:15 PM 42.8 °F - 33.8 °F 70% 29.73 in 10.0 mi Calm Calm - N/A   Mostly Cloudy
1:35 PM 42.8 °F 38.6 °F 33.8 °F 70% 29.73 in 10.0 mi SSW 6.9 mph - N/A   Overcast
1:55 PM 42.8 °F 36.2 °F 33.8 °F 70% 29.75 in 10.0 mi SW 12.7 mph - N/A   Overcast
2:15 PM 42.8 °F 41.1 °F 33.8 °F 70% 29.75 in 10.0 mi South 3.5 mph - N/A   Mostly Cloudy
2:35 PM 42.8 °F 40.1 °F 33.8 °F 70% 29.76 in 10.0 mi SW 4.6 mph - N/A   Clear
2:55 PM 42.8 °F 40.1 °F 35.6 °F 76% 29.77 in 10.0 mi SSE 4.6 mph - N/A   Clear
3:35 PM 44.6 °F 40.2 °F 33.8 °F 66% 29.79 in 10.0 mi West 8.1 mph - N/A   Clear
3:55 PM 42.8 °F 39.3 °F 33.8 °F 70% 29.82 in 10.0 mi NW 5.8 mph - N/A   Clear
4:15 PM 42.8 °F 36.6 °F 33.8 °F 70% 29.83 in 10.0 mi NNW 11.5 mph - N/A   Clear
4:35 PM 42.8 °F 35.8 °F 32.0 °F 66% 29.84 in 10.0 mi NNW 13.8 mph - N/A   Clear
4:55 PM 41.0 °F 33.1 °F 32.0 °F 70% 29.85 in 10.0 mi NW 15.0 mph - N/A   Mostly Cloudy
5:15 PM 39.2 °F 31.6 °F 30.2 °F 70% 29.86 in 10.0 mi NNW 12.7 mph - N/A   Overcast
5:35 PM 39.2 °F 33.6 °F 30.2 °F 70% 29.87 in 10.0 mi NNW 8.1 mph - N/A   Mostly Cloudy
5:55 PM 39.2 °F 37.0 °F 30.2 °F 70% 29.88 in 10.0 mi WNW 3.5 mph - N/A   Scattered Clouds
6:15 PM 39.2 °F 35.0 °F 30.2 °F 70% 29.90 in 10.0 mi NW 5.8 mph - N/A   Clear
6:36 PM 37.4 °F 34.9 °F 28.4 °F 70% 29.90 in 10.0 mi WNW 3.5 mph - N/A   Clear
6:55 PM 37.4 °F - 28.4 °F 70% 29.91 in 10.0 mi Calm Calm - N/A   Clear
7:15 PM 37.4 °F - 28.4 °F 70% 29.92 in 10.0 mi Calm Calm - N/A   Clear
7:35 PM 35.6 °F 30.7 °F 26.6 °F 70% 29.93 in 10.0 mi WSW 5.8 mph - N/A   Clear
7:55 PM 35.6 °F 30.7 °F 28.4 °F 75% 29.94 in 10.0 mi SSW 5.8 mph - N/A   Clear
8:15 PM 35.6 °F 30.7 °F 26.6 °F 70% 29.94 in 10.0 mi West 5.8 mph - N/A   Scattered Clouds
8:35 PM 35.6 °F 29.9 °F 28.4 °F 75% 29.96 in 10.0 mi WNW 6.9 mph - N/A   Overcast
8:55 PM 35.6 °F 29.2 °F 28.4 °F 75% 29.96 in 10.0 mi West 8.1 mph - N/A   Overcast
9:15 PM 35.6 °F 31.7 °F 28.4 °F 75% 29.97 in 10.0 mi West 4.6 mph - N/A   Overcast
9:35 PM 35.6 °F 31.7 °F 28.4 °F 75% 29.97 in 10.0 mi WNW 4.6 mph - N/A   Overcast
9:55 PM 35.6 °F 31.7 °F 26.6 °F 70% 29.97 in 10.0 mi WNW 4.6 mph - N/A   Mostly Cloudy
10:15 PM 35.6 °F 29.9 °F 26.6 °F 70% 29.98 in 10.0 mi WNW 6.9 mph - N/A   Mostly Cloudy
10:35 PM 35.6 °F 29.2 °F 26.6 °F 70% 29.98 in 10.0 mi WNW 8.1 mph - N/A   Mostly Cloudy
10:55 PM 33.8 °F 29.6 °F 24.8 °F 70% 29.99 in 10.0 mi WNW 4.6 mph - N/A   Mostly Cloudy
11:35 PM 32.0 °F 24.2 °F 24.8 °F 75% 30.01 in 10.0 mi West 9.2 mph - N/A   Partly Cloudy
11:55 PM 30.2 °F 23.4 °F 24.8 °F 80% 30.01 in 10.0 mi WNW 6.9 mph - N/A   Scattered Clouds